Weather History for Newport, VT

Change the Weather History Date:

Sunday, January 20, 2013

  Actual Average Record
Temperature  
Mean Temperature 22 °F -  
Max Temperature 36 °F 24 °F 47 °F (1954)
Min Temperature 7 °F 3 °F -27 °F (1970)
Degree Days  
Heating Degree Days 43    
Moisture  
Dew Point 16 °F    
Average Humidity 63    
Maximum Humidity 88    
Minimum Humidity 44    
Precipitation  
Precipitation 0.00 in - - ()
Sea Level Pressure  
Sea Level Pressure 29.58 in    
Wind  
Wind Speed 12 mph (SW)    
Max Wind Speed 33 mph    
Max Gust Speed 48 mph    
Visibility 8 miles    
Events Snow    
Averages and records for this station are not official NWS values.
T = Trace of Precipitation, MM = Missing Value Source: NWS Daily Summary

Daily Weather History Graph

Daily Weather History Graph

Search for Another Location

Airport:

Trip Planner

Search our weather history database for the weather conditions in past years. The results will help you decide how hot, cold, wet, or windy it might be!

Date:

Astronomy

Jan. 20, 2013 Rise Set
Actual Time 7:19 AM EST 4:40 PM EST
Civil Twilight 6:47 AM EST 5:13 PM EST
Nautical Twilight 6:11 AM EST 5:48 PM EST
Astronomical Twilight 5:36 AM EST 6:23 PM EST
Moon 11:41 AM EST (1/20) 1:47 AM EST (1/20)
Length of Visible Light 10h 25m
Length of Day
9h 21m
Waxing Gibbous, 66% of the Moon is Illuminated
Jan 20
Waxing Gibbous
Jan 26
Full
Feb 3
Last Quarter
Feb 10
New
Feb 17
First Quarter

Hourly Weather History & Observations

Time (EST) Temp. Windchill Dew Point Humidity Pressure Visibility Wind Dir Wind Speed Gust Speed Precip Events Conditions
12:15 AM 32.0 °F 27.5 °F 27.5 °F 83% 29.71 in 2.0 mi South 4.6 mph - N/A Snow Light Snow
12:35 AM 31.8 °F 28.5 °F 28.2 °F 87% 29.69 in 1.5 mi SSE 3.5 mph - N/A Snow Light Snow
12:55 AM 31.8 °F 26.2 °F 28.6 °F 88% 29.66 in 5.0 mi SSE 5.8 mph - N/A Snow Light Snow
1:15 AM 32.0 °F 25.6 °F 28.2 °F 86% 29.65 in 10.0 mi WSW 6.9 mph - N/A   Overcast
1:35 AM 31.3 °F 23.9 °F 27.9 °F 87% 29.65 in 10.0 mi SSW 8.1 mph - N/A   Overcast
1:55 AM 33.4 °F 25.4 °F 24.8 °F 71% 29.64 in 10.0 mi SSE 10.4 mph - N/A Snow Light Snow
2:15 AM 33.8 °F 25.3 °F 24.8 °F 70% 29.63 in 7.0 mi SSE 11.5 mph 19.6 mph N/A Snow Light Snow
2:35 AM 33.6 °F 27.5 °F 23.9 °F 68% 29.61 in 10.0 mi South 6.9 mph - N/A   Overcast
2:55 AM 33.3 °F 27.1 °F 23.5 °F 68% 29.61 in 10.0 mi SSW 6.9 mph - N/A   Scattered Clouds
3:15 AM 32.2 °F 28.9 °F 22.8 °F 68% 29.60 in 10.0 mi SW 3.5 mph - N/A   Clear
3:35 AM 32.5 °F 29.3 °F 22.6 °F 67% 29.58 in 10.0 mi SSW 3.5 mph - N/A   Mostly Cloudy
3:55 AM 32.7 °F 26.4 °F 22.3 °F 65% 29.56 in 10.0 mi SSE 6.9 mph - N/A   Scattered Clouds
4:15 AM 33.6 °F 24.6 °F 22.5 °F 64% 29.53 in 10.0 mi SSE 12.7 mph - N/A   Scattered Clouds
4:35 AM 34.7 °F 26.9 °F 22.8 °F 62% 29.51 in 10.0 mi South 10.4 mph 20.7 mph N/A   Mostly Cloudy
4:55 AM 33.8 °F 25.3 °F 22.6 °F 64% 29.49 in 10.0 mi South 11.5 mph 17.3 mph N/A   Scattered Clouds
5:15 AM 33.8 °F 26.4 °F 23.0 °F 65% 29.47 in 10.0 mi South 9.2 mph 18.4 mph N/A   Mostly Cloudy
5:35 AM 34.0 °F 26.0 °F 22.3 °F 62% 29.44 in 10.0 mi South 10.4 mph - N/A   Scattered Clouds
5:55 AM 33.8 °F 24.3 °F 22.1 °F 62% 29.43 in 10.0 mi SSE 13.8 mph 18.4 mph N/A   Clear
6:15 AM 33.8 °F 24.8 °F 22.3 °F 63% 29.42 in 10.0 mi South 12.7 mph - N/A   Mostly Cloudy
6:35 AM 33.4 °F 28.1 °F 22.1 °F 63% 29.42 in 10.0 mi South 5.8 mph - N/A   Mostly Cloudy
6:55 AM 33.1 °F 25.5 °F 22.1 °F 64% 29.40 in 10.0 mi SSE 9.2 mph - N/A   Mostly Cloudy
7:15 AM 32.9 °F 27.5 °F 22.8 °F 66% 29.39 in 10.0 mi South 5.8 mph - N/A   Overcast
7:35 AM 32.7 °F 25.7 °F 22.5 °F 66% 29.38 in 10.0 mi South 8.1 mph - N/A   Mostly Cloudy
7:55 AM 32.9 °F 26.7 °F 22.5 °F 65% 29.37 in 10.0 mi South 6.9 mph - N/A   Mostly Cloudy
8:15 AM 32.9 °F 27.5 °F 22.1 °F 65% 29.36 in 10.0 mi South 5.8 mph - N/A   Scattered Clouds
8:35 AM 34.0 °F 28.0 °F 22.8 °F 64% 29.35 in 10.0 mi South 6.9 mph - N/A   Scattered Clouds
8:55 AM 34.0 °F 27.2 °F 23.4 °F 65% 29.35 in 10.0 mi SSW 8.1 mph - N/A   Mostly Cloudy
9:15 AM 35.1 °F 28.6 °F 24.4 °F 65% 29.35 in 10.0 mi SSW 8.1 mph - N/A   Overcast
9:35 AM 35.4 °F 21.8 °F 29.7 °F 80% 29.41 in 1.5 mi WSW 32.2 mph 44.9 mph N/A Snow Light Snow
9:55 AM 34.0 °F 21.3 °F 30.0 °F 85% 29.42 in 2.0 mi WSW 25.3 mph 38.0 mph N/A Snow Light Snow
10:15 AM 34.7 °F 21.8 °F 27.3 °F 74% 29.42 in 10.0 mi WSW 27.6 mph 36.8 mph N/A Snow Light Snow
10:35 AM 35.2 °F 22.7 °F 25.2 °F 67% 29.42 in 10.0 mi WSW 26.5 mph 40.3 mph N/A   Overcast
10:55 AM 35.6 °F 22.3 °F 23.4 °F 61% 29.42 in 10.0 mi WSW 31.1 mph 48.3 mph N/A   Overcast
11:15 AM 36.0 °F 23.2 °F 23.5 °F 61% 29.41 in 10.0 mi SW 28.8 mph 36.8 mph N/A   Mostly Cloudy
11:35 AM 35.6 °F 24.2 °F 22.6 °F 59% 29.39 in 10.0 mi WSW 21.9 mph 34.5 mph N/A   Scattered Clouds
11:55 AM 36.1 °F 25.0 °F 22.5 °F 58% 29.40 in 10.0 mi SW 21.9 mph 38.0 mph N/A   Scattered Clouds
12:15 PM 34.7 °F 21.1 °F 19.9 °F 55% 29.41 in 10.0 mi WSW 31.1 mph 44.9 mph N/A   Scattered Clouds
12:35 PM 35.4 °F 23.0 °F 16.5 °F 46% 29.42 in 10.0 mi SW 26.5 mph 41.4 mph N/A   Scattered Clouds
12:55 PM 35.8 °F 24.5 °F 15.6 °F 44% 29.43 in 10.0 mi WSW 21.9 mph 39.1 mph N/A   Mostly Cloudy
1:15 PM 33.4 °F 21.1 °F 17.8 °F 53% 29.45 in 3.0 mi WSW 23.0 mph 39.1 mph N/A Snow Light Snow
1:35 PM 32.2 °F 19.1 °F 18.9 °F 58% 29.48 in 3.0 mi West 24.2 mph 38.0 mph N/A Snow Light Snow
1:55 PM 29.3 °F 16.2 °F 22.1 °F 75% 29.48 in 0.2 mi WSW 20.7 mph 43.7 mph N/A Snow Light Snow
2:15 PM 32.0 °F 18.9 °F 13.6 °F 47% 29.49 in 10.0 mi WSW 24.2 mph 41.4 mph N/A   Scattered Clouds
2:55 PM 31.6 °F 17.1 °F 13.6 °F 47% 29.52 in 7.0 mi WSW 29.9 mph 41.4 mph N/A   Overcast
3:15 PM 30.7 °F 16.2 °F 12.9 °F 48% 29.53 in 10.0 mi WSW 28.8 mph 40.3 mph N/A   Overcast
3:35 PM 29.3 °F 13.3 °F 12.9 °F 51% 29.55 in 10.0 mi WSW 33.4 mph 46.0 mph N/A   Overcast
3:55 PM 29.3 °F 15.3 °F 11.3 °F 47% 29.57 in 10.0 mi WSW 24.2 mph 40.3 mph N/A   Overcast
4:15 PM 28.4 °F 14.1 °F 13.5 °F 54% 29.59 in 4.0 mi WSW 24.2 mph 35.7 mph N/A   Haze
4:35 PM 27.0 °F 15.6 °F 16.0 °F 63% 29.61 in 2.5 mi WSW 13.8 mph 23.0 mph N/A Snow Light Snow
4:55 PM 25.2 °F 11.6 °F 17.8 °F 74% 29.64 in 1.2 mi West 18.4 mph 25.3 mph N/A Snow Light Snow
5:15 PM 23.5 °F 9.0 °F 15.3 °F 71% 29.66 in 2.0 mi West 19.6 mph 31.1 mph N/A Snow Light Snow
5:35 PM 21.6 °F 8.8 °F 13.3 °F 70% 29.68 in 2.0 mi West 13.8 mph 28.8 mph N/A Snow Light Snow
5:55 PM 20.3 °F 7.2 °F 11.7 °F 69% 29.70 in 2.0 mi West 13.8 mph 27.6 mph N/A Snow Light Snow
6:15 PM 19.9 °F 7.3 °F 7.7 °F 59% 29.72 in 10.0 mi West 12.7 mph 17.3 mph N/A   Mostly Cloudy
6:35 PM 19.2 °F 9.3 °F 5.9 °F 56% 29.74 in 10.0 mi West 8.1 mph 17.3 mph N/A   Scattered Clouds
6:55 PM 18.0 °F 3.1 °F 4.8 °F 57% 29.75 in 10.0 mi West 16.1 mph - N/A   Mostly Cloudy
7:15 PM 17.2 °F 2.7 °F 3.9 °F 56% 29.77 in 10.0 mi West 15.0 mph 24.2 mph N/A   Mostly Cloudy
7:35 PM 16.5 °F 2.4 °F 3.2 °F 56% 29.78 in 10.0 mi West 13.8 mph 24.2 mph N/A   Mostly Cloudy
7:55 PM 15.6 °F 1.2 °F 2.3 °F 56% 29.79 in 10.0 mi West 13.8 mph 25.3 mph N/A   Mostly Cloudy
8:15 PM 14.7 °F -0.5 °F 1.2 °F 55% 29.80 in 10.0 mi West 15.0 mph 23.0 mph N/A   Overcast
8:35 PM 13.6 °F -1.9 °F 0.1 °F 55% 29.81 in 10.0 mi West 15.0 mph 21.9 mph N/A   Mostly Cloudy
8:55 PM 13.1 °F 0.1 °F -0.4 °F 55% 29.82 in 10.0 mi West 10.4 mph 23.0 mph N/A   Mostly Cloudy
9:15 PM 12.7 °F -1.8 °F -0.4 °F 56% 29.83 in 10.0 mi West 12.7 mph 21.9 mph N/A   Overcast
9:35 PM 12.2 °F -3.7 °F -0.8 °F 56% 29.84 in 10.0 mi West 15.0 mph 24.2 mph N/A   Overcast
9:55 PM 11.8 °F -4.2 °F -0.9 °F 57% 29.84 in 10.0 mi West 15.0 mph 19.6 mph N/A   Overcast
10:15 PM 10.9 °F -3.4 °F 0.5 °F 63% 29.85 in 5.0 mi WNW 11.5 mph 21.9 mph N/A   Haze
10:35 PM 10.4 °F -4.1 °F 0.5 °F 64% 29.86 in 7.0 mi West 11.5 mph 19.6 mph N/A   Overcast
10:55 PM 9.9 °F -5.5 °F -1.3 °F 61% 29.87 in 10.0 mi WNW 12.7 mph 21.9 mph N/A   Mostly Cloudy
11:15 PM 9.3 °F -5.4 °F -2.2 °F 60% 29.87 in 10.0 mi West 11.5 mph 23.0 mph N/A   Scattered Clouds
11:35 PM 8.2 °F -6.8 °F -2.2 °F 63% 29.87 in 10.0 mi WNW 11.5 mph 19.6 mph N/A   Scattered Clouds
11:55 PM 7.5 °F -3.9 °F -2.4 °F 64% 29.88 in 10.0 mi West 6.9 mph - N/A   Mostly Cloudy